User: anonymous   Login
Location: UBC Liquid-Mirror Observatory
(49.2876°N, 122.5728°W)
Time: 05:32:44
(UTC-07:00)
Language:

Cosmos 1743 Rocket - Orbit

View from above orbital plane
View from above orbital plane
View from above satellite
View from above satellite

Ground track
Ground track

The orbit data is extracted from the following two-line orbital elements,

1 16720U 86034B   16151.20131751  .00000102  00000-0  95706-5 0  9996
2 16720  82.5555 238.5349 0018723 286.1936 101.2446 14.83228646622493
Epoch (UTC): 30 May 2016 04:49:53
Eccentricity: 0.0018723
inclination: 82.5555°
perigee height: 606 km
apogee height: 632 km
right ascension of ascending node: 238.5349°
argument of perigee: 286.1936°
revolutions per day: 14.83228646
mean anomaly at epoch: 101.2446°
orbit number at epoch: 62249

The dashed part of the orbit path shows where the satellite is in the earth's shadow,  

DLR